www.pogodaiklimat.ru

Погода и климат >> Архив погоды >> Россия >> Приморский край >> Рудная Пристань


ПОГОДА в Рудной Пристани

  • Прогноз погоды в Рудной Пристани
  • Монитор погоды в Рудной Пристани
  • Климат города

АРХИВ ПОГОДЫ в Рудной Пристани

Время (UTC), дата Ветер
(напр.,м/с)
 
Видим.   Явления Облачность Т
(С)
Тd
(С)
f
(%)
Тe
(С)
Тes
(С)
Комфортность P
(гПа)
Po
(гПа)
Тmin
(С)
Tmax
(С)
R
(мм)
R24
(мм)
S
(см)
03 10.12 З 3 4000 м слабый ливневой снег 10/8 600 м
[Cb cap As trans]
-10.0 -13.1 78 -16 -16 1014.6 1010.1
06 10.12 З 2 4000 м слабый ливневой снег 10/8 600 м
[Cb cap As op]
-7.9 -9.3 90 -12 -12 1012.2 1007.8
09 10.12 З 2 2000 м ливневой снег 10/8 600 м
[Cb cap As op]
-7.6 -8.3 95 -12 -12 1011.2 1006.8 -7.6 3
12 10.12 СВ 2 4000 м слабый ливневой снег 10/8 600 м
[Cb cap As op]
-4.3 -6.6 84 -8 -8 1008.8 1004.4
15 10.12 СВ 3 4000 м слабый ливневой снег 10/8 600 м
[Cb cap As op]
-4.2 -4.9 95 -10 -10 1004.1 999.8
18 10.12 СЗ 1
{12}
2000 м ливневой снег 10/8 600 м
[Cb cap As op]
-4.2 -4.6 97 -7 -7 1000.3 996.0
21 10.12 З 3 2000 м ливневой снег 10/8 600 м
[Cb cap As op]
-5.6 -6.0 97 -11 -11 996.1 991.8 -7.6 16 33
00 11.12 З 8-14
{17}
1000 м ливневой снег {метель} 10/8 600 м
[Cb cap As op]
-6.5 -7.3 94 -16 -16 994.3 990.0
03 11.12 З 7-14
{20}
4000 м слабый ливневой снег {метель} 10/8 600 м
[Cb cap As op]
-10.9 -14.4 75 -20 -20 995.1 990.8
06 11.12 З 8-19
{19}
1000 м ливневой снег {метель} 10/8 600 м
[Cb cap As op]
-12.8 -15.1 83 -23 -23 995.0 990.6
09 11.12 З 10-20
{20}
20 км позёмок {ливн. осадки, метель} 10/8 600 м
[Cb cap As op]
-13.6 -22.0 49 -25 -25 995.4 991.0 -5.3 8
12 11.12 ЮЗ 7-17
{20}
20 км позёмок {ливн. осадки, метель} 9/6 600 м
[Cb cap Ac trans]
-13.9 -23.3 45 -24 -24 996.2 991.8
15 11.12 З 6-18
{21}
20 км позёмок {метель} 10/8 600 м
[Cb cap Ci sp]
-13.2 -23.4 42 -22 -22 997.1 992.6
18 11.12 З 6-15
{20}
20 км позёмок {метель} 6/3 600 м
[Sc diur, vesp Ci sp]
-13.6 -25.0 38 -23 -23 999.0 994.5
21 11.12 З 8-18
{21}
20 км позёмок {метель} 4/4 600 м
[Cb cap]
-15.0 -26.1 38 -26 -26 1001.2 996.7 -15.0 2
00 12.12 ЮЗ 4-12
{20}
20 км позёмок {метель} 8/4 600 м
[Cb cap Ac trans]
-14.3 -25.4 38 -22 -22 1002.8 998.4
03 12.12 ЮЗ 4-13
{18}
20 км позёмок {метель} 6/3 600 м
[Sc diur, vesp Ac trans]
-11.7 -24.5 34 -19 -18 1003.7 999.3
06 12.12 З 7-18
{22}
20 км позёмок {метель} 8/3 600 м
[Sc Ac lent Ci sp]
-11.5 -24.1 34 -21 -21 1004.6 1000.2
09 12.12 ЮЗ 5-13
{20}
20 км позёмок {метель} 9/8 600 м
[Sc Ac trans]
-12.0 -24.0 36 -20 -20 1006.9 1002.5 -11.1
12 12.12 З 6-17
{23}
20 км позёмок {метель} 10/4 600 м
[Sc As op]
-12.2 -23.9 37 -21 -21 1008.8 1004.3
15 12.12 З 7-17
{22}
20 км позёмок {метель} 10/4 600 м
[Sc As op]
-12.5 -23.3 40 -22 -22 1009.1 1004.6
18 12.12 З 7-21
{24}
20 км позёмок {метель} 10/6 600 м
[Sc As op]
-13.0 -22.9 43 -23 -23 1011.0 1006.5
21 12.12 З 7-18
{25}
20 км позёмок {метель} 9/6 600 м
[Sc Ci sp]
-13.6 -24.0 41 -23 -23 1012.3 1007.8 -13.6 1
00 13.12 З 11-21
{25}
20 км позёмок {метель} 9/6 600 м
[Sc Ci sp]
-13.1 -23.9 40 -25 -25 1013.4 1008.9 -13.7
03 13.12 З 8-21
{23}
20 км позёмок {метель} 10/6 600 м
[Cb cap Ac lent Ci sp]
-11.0 -23.0 36 -21 -21 1013.6 1009.1
06 13.12 З 9-19
{21}
20 км позёмок {метель} 10/6 600 м
[Cb cap Ac und]
-10.6 -21.7 40 -21 -21 1016.1 1011.6
09 13.12 З 7-17
{20}
20 км {метель} 10/6 600 м
[Cb cap Ac und]
-11.3 -21.8 42 -21 -21 1019.3 1014.8 -10.5
12 13.12 З 9-17
{21}
20 км {метель} 10/8 600 м
[Cb cap As op]
-11.8 -21.9 43 -22 -22 1021.9 1017.4
15 13.12 З 9-18
{18}
20 км 10/8 600 м
[Cb cap As op]
-11.8 -21.5 44 -22 -22 1023.2 1018.7
18 13.12 З 8-16
{20}
20 км 10/8 600 м
[Cb cap As op]
-11.6 -20.5 48 -22 -22 1024.3 1019.8
21 13.12 З 9-15
{19}
20 км 10/8 600 м
[Cb cap As op]
-11.1 -20.2 47 -21 -21 1025.5 1021.0 -11.8 1
00 14.12 З 7-15
{18}
20 км 9/8 600 м
[Sc diur, vesp Ac trans]
-10.9 -20.0 47 -20 -20 1026.5 1022.0
03 14.12 З 7-14
{17}
20 км 9/8 600 м
[Sc Ac trans]
-8.2 -18.6 43 -17 -17 1025.5 1021.0
06 14.12 З 6-12
{14}
20 км 4/3 600 м
[Sc Ac trans]
-6.8 -18.1 40 -14 -14 1024.7 1020.2
09 14.12 З 7-12
{15}
20 км 1/1 600 м
[Sc]
-9.0 -18.1 48 -18 -18 1025.3 1020.9 -6.3
12 14.12 ЮЗ 5-10
{14}
20 км ясно -10.0 -18.7 49 -18 -18 1024.7 1020.2
15 14.12 ЮЗ 3
{14}
20 км ясно -11.1 -20.6 45 -17 -17 1024.9 1020.4
18 14.12 З 5-10
{11}
20 км ясно -11.1 -23.2 36 -19 -19 1024.3 1019.8
21 14.12 З 1
{11}
20 км 6/4 600 м
[Sc Ci sp]
-16.1 -22.6 57 -19 -19 1023.8 1019.2 -16.1 1
00 15.12 З 3 20 км 10/6 600 м
[Sc As trans]
-11.3 -23.3 36 -17 -17 1023.3 1018.8
03 15.12 З 1 20 км 10/4 600 м
[Sc As trans]
-7.9 -21.6 32 -10 -9 1021.0 1016.6
06 15.12 ЮЗ 1 20 км 10/4 600 м
[Sc Ac trans Ci sp]
-6.4 -21.4 29 -8 -8 1019.0 1014.5
09 15.12 З 2 20 км 10/6 600 м
[Sc Ac trans Ci sp]
-8.3 -20.8 36 -12 -12 1018.9 1014.5 -6.2
12 15.12 З 2 20 км 8/4 600 м
[Sc Ac trans Ci fib]
-9.7 -19.1 46 -14 -14 1018.6 1014.2
15 15.12 З 1 20 км 3/0
[Ci fib]
-14.1 -19.4 64 -17 -17 1018.2 1013.6
18 15.12 З 1 20 км 3/0
[Ci fib]
-16.8 -21.7 66 -20 -20 1016.8 1012.2
21 15.12 ЮЗ 3 20 км 3/0
[Ci fib]
-14.6 -23.0 49 -21 -21 1015.9 1011.4 -16.9 1
00 16.12 ЮЗ 5-10
{14}
20 км ясно -12.7 -24.0 38 -21 -20 1015.3 1010.8
03 16.12 З 6-12
{15}
20 км ясно -10.4 -23.9 32 -19 -17 1014.3 1009.9
06 16.12 З 5-11
{13}
20 км 3/0
[Ac lent Ci fib]
-10.3 -24.1 31 -18 -18 1013.3 1008.8
09 16.12 ЮЗ 2
{11}
20 км ясно -13.2 -24.6 38 -18 -18 1014.8 1010.3 -9.5
12 16.12 ЮЗ 3 20 км ясно -14.4 -25.5 38 -21 -21 1016.3 1011.7
15 16.12 З 5-10
{14}
20 км ясно -15.4 -26.7 37 -24 -24 1016.4 1011.8
18 16.12 З 5-12
{17}
20 км ясно -15.2 -26.0 39 -24 -24 1016.2 1011.6
21 16.12 З 7-13
{19}
20 км ясно -15.2 -26.3 38 -26 -26 1016.9 1012.4 -15.5 1

 

Местоположение метеостанции Рудная Пристань (Приморский край, Россия): широта 44.37 долгота 135.80 высота над уровнем моря 34 м.

В архиве по умолчанию представлена погода в Рудной Пристани за последнюю неделю. Архивные данные за месяц целиком и за предыдущие месяцы, начиная с января 2011 года, Вы можете получить, выбрав интересующий диапазон дат из раскрывающегося списка и нажав кнопку "Ввод!".

Внимание! Время в таблицах - всемирное. Для получения местного времени необходимо прибавить поправку, которая в Рудной Пристани равна 10 ч.

Смотрите также архив погоды в соседних городах и на ближайших метеорологических станциях:

Погода в Богополе (Приморский край, Россия) (35 км)
Погода в Кавалерово (Приморский край, Россия) (65 км)
Погода в Ольге (Приморский край, Россия) (80 км)
Погода в Дальнегорске (Приморский край, Россия) (93 км)
Погода в Тернее (Приморский край, Россия) (94 км)
Погода в Мельничном (Приморский край, Россия) (122 км)
Погода в Лучегорске (Приморский край, Россия) (151 км)
Погода в Малой Кеме (Приморский край, Россия) (154 км)
Погода в Чугуевке (Приморский край, Россия) (161 км)
Погода в Малиново (Приморский край, Россия) (172 км)

Пояснения к столбцам:

Ветер - указаны скорость ветра в м/с - средняя за 10 мин, порывы в срок и между сроками (в фигурных скобках) и направление, откуда дует ветер: С - северный, СВ - северо-восточный, В - восточный, ЮВ - юго-восточный, Ю - южный, ЮЗ - юго-западный, З - западный, СЗ - северо-западный.
Видимость - горизонтальная дальность видимости в метрах или километрах. При видимости от 1 до 10 км при отсутствии осадков обычно наблюдается дымка, при ухудшении видимости до 1 км и менее - туман. В сухую погоду видимость может ухудшаться дымом, пылью или мглою.
Явления - указаны атмосферные явления, наблюдавшиеся в срок или в последний час перед сроком; фигурными скобками обозначены явления, наблюдавшиеся между сроками (за 1-3 часа до срока); квадратными скобками обозначены град или гололедные отложения с указанием их диаметра в мм.
Облачность - указаны через наклонную черту общая и нижняя облачность в баллах и высота нижней границы облаков в метрах; квадратными скобками обозначены формы облаков: Ci - перистые, Cs - перисто-слоистые, Cc - перисто-кучевые, Ac - высококучевые, As - высокослоистые, Sc - слоисто-кучевые, Ns - слоисто-дождевые, Cu - кучевые, Cb - кучево-дождевые. Подробнее классификацию облаков см. в Атласе облаков (PDF).
T - Температура воздуха - температура, измеренная на высоте 2 м над землей.
Td - Температура точки росы - температура, при понижении до которой содержащийся в воздухе водяной пар достигнет насыщения.
f - Относительная влажность воздуха - влажноcть воздуха, измеренная на высоте 2 м над землей.
Te - Эффективная температура - температура, которую ощущает одетый по сезону человек в тени. Характеристика душности погоды. При расчете учитывается влияние влажности воздуха и скорости ветра на теплоощущения человека.
Tes - Эффективная температура на солнце - температура, которую ощущает человек, с поправкой на солнечный нагрев. Характеристика знойности погоды. Зависит от высоты солнца над горизонтом, облачности и скорости ветра. Ночью, в пасмурную погоду, а также при ветре 12 м/с и более поправка равна нулю.
P - Атмосферное давление - приведенное к уровню моря атмосферное давление.
Po - Атмосферное давление - измеренное на уровне метеостанции атмосферное давление.
Tmin - Минимальная температура - минимум температуры воздуха на высоте 2 м над землей.
Tmax - Максимальная температура - максимум температуры воздуха на высоте 2 м над землей.
R - Количество осадков - Количество выпавших осадков за период времени, мм. При наведении курсора мыши на число - период времени, за который выпало указанное количество осадков.
R24 - Количество осадков - Количество выпавших осадков за 24 часа, мм.
S - Снежный покров - Высота снежного покрова, см. При наведении курсора мыши на число - состояние снежного покрова и степень покрытия местности в баллах.